Regional Weather Roundup
Issued by NWS

Home | Current Version | Previous Version | Text Only | Print | Product List | Glossary On
Versions: 1 2 3 4 5 6 7 8 9 10 11 12 13 14 15 16 17 18 19 20 21 22 23 24 25 26 27 28 29 30 31 32 33 34 35 36 37 38 39 40 41 42 43 44 45 46 47 48 49 50
000
ASUS44 KJAN 260410
RWRMS

MISSISSIPPI HOURLY WEATHER ROUNDUP
NATIONAL WEATHER SERVICE JACKSON MS
1000 PM CST SUN JAN 25 2015

NOTE: "FAIR: INDICATES FEW OR NO CLOUDS BELOW 12,000 FEET WITH NO
SIGNIFICANT WEATHER AND/OR OBSTRUCTIONS TO VISIBILITY.

MSZ001>002-007>008-010>013-018>021-025>028-034>036-260500-
NORTHWEST MISSISSIPPI

CITY           SKY/WX    TMP DP  RH WIND       PRES   REMARKS
CLARKSDALE     CLOUDY    46  36  66 NW16G24   29.95R
CLEVELAND      CLOUDY    47  38  70 NW16      29.94R
GREENWOOD      CLOUDY    50  36  58 NW8G17    29.93R
GREENVILLE     CLOUDY    49  34  56 NW18G28   29.95R
GRENADA        CLOUDY    46  34  61 NW17G26   29.91R
OLIVE BRANCH   CLOUDY    41  37  87 NW20      29.89R
OXFORD         CLOUDY    43  32  65 NW17G24   29.91R
TUNICA         CLOUDY    45  34  65 NW18G31   29.94R
$$

MSZ003>006-009-014>017-022>024-029>033-037>039-260500-
NORTHEAST MISSISSIPPI

CITY           SKY/WX    TMP DP  RH WIND       PRES   REMARKS
COLUMBUS AFB   CLOUDY    48  40  73 NW9       29.85R
CORINTH        CLOUDY    45  37  76 NW16G23   29.83R
GOLDN TRIANGLE CLOUDY    48  39  71 NW12G18   29.85R
STARKVILLE     CLOUDY    46  39  76 NW7       29.87R
TUPELO         CLOUDY    45  37  73 NW13G22   29.86R
$$

MSZ040-058-260500-
CENTRAL MISSISSIPPI

CITY           SKY/WX    TMP DP  RH WIND       PRES   REMARKS
JACKSON INTL   MOCLDY    54  34  46 NW16G25   29.92R
JACKSON HAWKNS PTCLDY    53  34  48 NW12G21   29.92R
MERIDIAN KEY   PTCLDY    49  37  63 NW8       29.88R
MERIDIAN NAS   PTCLDY    51  36  56 NW10      29.88R
RAYMOND        FAIR      54  48  82 MISG      29.94R
VICKSBURG      CLOUDY    54  36  50 NW9       29.97R
$$

MSZ059>079-260500-
SOUTH MISSISSIPPI

CITY           SKY/WX    TMP DP  RH WIND       PRES   REMARKS
BROOKHAVEN     FAIR      54  36  50 NW10      29.94R
HATTIESBURG    CLEAR     56  36  47 NW10      29.90R
MCCOMB         CLEAR     53  34  48 NW10      29.93R
NATCHEZ        CLEAR     54  34  47 W10       29.98R
PINE BELT      CLEAR     54  34  47 W5        29.90R
$$

MSZ080>082-260500-
COASTAL MISSISSIPPI

CITY           SKY/WX    TMP DP  RH WIND       PRES   REMARKS
BILOXI         PTCLDY    55  42  61 W3        29.91R
PASCAGOULA     CLEAR     52  42  69 W3        29.90R
GULFPORT       PTCLDY    55  41  59 W7        29.91R
$$


USA.gov is the U.S. government's official web portal to all federal, state and local government web resources and services.